This is the latest recevied weather packets stored in our database for station/object WA0LM. If no packets are shown the sender has not sent any weather packets the latest 10 day(s).
| Time | Temp. | Humidity | Pressure | Rain* | Wind** | Luminosity | Snow |
|---|---|---|---|---|---|---|---|
| 1777851531 | 18.89° C | 35% | 1002.4 hPa | 0 mm | - | 93 W/m² | - |
| 1777851227 | 18.89° C | 38% | 1002.6 hPa | 0 mm | - | 169 W/m² | - |
| 1777850924 | 18.89° C | 38% | 1002.4 hPa | 0 mm | - | 182 W/m² | - |
| 1777850621 | 18.89° C | 37% | 1002.5 hPa | 0 mm | - | 203 W/m² | - |
| 1777850319 | 18.89° C | 33% | 1002.8 hPa | 0 mm | - | 218 W/m² | - |
| 1777850016 | 18.33° C | 39% | 1002.7 hPa | 0 mm | - | 125 W/m² | - |
| 1777849712 | 18.89° C | 34% | 1002.8 hPa | 0 mm | - | 94 W/m² | - |
| 1777849409 | 19.44° C | 35% | 1002.8 hPa | 0 mm | - | 289 W/m² | - |
| 1777849107 | 18.89° C | 38% | 1002.8 hPa | 0 mm | - | 299 W/m² | - |
| 1777848802 | 18.89° C | 35% | 1002.9 hPa | 0 mm | - | 321 W/m² | - |
| 1777848498 | 18.33° C | 36% | 1003.1 hPa | 0 mm | - | 179 W/m² | - |
| 1777848196 | 18.89° C | 35% | 1003 hPa | 0 mm | - | 197 W/m² | - |
| 1777847894 | 18.89° C | 35% | 1002.8 hPa | 0 mm | - | 190 W/m² | - |
| 1777847591 | 18.89° C | 35% | 1003 hPa | 0 mm | - | 405 W/m² | - |
| 1777847287 | 18.89° C | 32% | 1002.8 hPa | 0 mm | - | 328 W/m² | - |
| 1777846985 | 18.89° C | 35% | 1003.1 hPa | 0 mm | - | 388 W/m² | - |
| 1777846683 | 18.89° C | 35% | 1003.1 hPa | 0 mm | - | 350 W/m² | - |
| 1777846381 | 18.89° C | 35% | 1003 hPa | 0 mm | - | 376 W/m² | - |
| 1777846077 | 18.89° C | 33% | 1003 hPa | 0 mm | - | 436 W/m² | - |
| 1777845774 | 18.89° C | 33% | 1003.1 hPa | 0 mm | - | 441 W/m² | - |
| 1777845471 | 18.33° C | 36% | 1003.2 hPa | 0 mm | - | 450 W/m² | - |
| 1777845168 | 18.89° C | 35% | 1003.4 hPa | 0 mm | - | 467 W/m² | - |
| 1777844866 | 18.89° C | 36% | 1003.2 hPa | 0 mm | - | 471 W/m² | - |
| 1777844562 | 18.33° C | 37% | 1003.2 hPa | 0 mm | - | 483 W/m² | - |
| 1777844261 | 18.89° C | 35% | 1003.5 hPa | 0 mm | - | 499 W/m² | - |
* Rain latest hour (hover to see other rain measurements)
** Current wind speed in m/s (hover to see current wind gust speed)